K9JDN Weather Reports


Display with metric or nautical units.
time (UTC)temp
F
wind
direction
speed
MPH
gust
MPH
rain 1hr
in
rain 24hr
in
rain mn
in
humidity
%
barometer
mb
20260906011608 86 0 0.0 0.0 0.00 0.00 0.00 69 1014.5
20260906010106 85 0 0.0 0.0 0.00 0.00 0.00 72 1014.5
20260906004607 86 0 0.0 0.0 0.00 0.00 0.00 72 1014.3
20260906003102 86 0 0.0 0.0 0.00 0.00 0.00 72 1014.4
20260906001610 87 0 0.0 0.0 0.00 0.00 0.00 71 1014.4
20260906000108 87 0 0.0 0.0 0.00 0.00 0.00 69 1014.4
20260905234603 88 0 0.0 0.0 0.00 0.00 0.00 70 1014.3
20260905233107 87 0 0.0 0.0 0.00 0.00 0.00 64 1014.3
20260905231608 87 0 0.0 2.0 0.00 0.00 0.00 71 1014.4
20260905230109 86 105 0.0 1.0 0.00 0.00 0.00 72 1014.3
20260905224619 86 117 0.0 1.0 0.00 0.00 0.00 68 1014.5
20260905223118 84 0 0.0 0.0 0.00 0.00 0.00 65 1014.4
20260905221606 85 323 1.0 5.0 0.00 0.00 0.00 75 1014.3
20260905220103 86 0 0.0 4.0 0.00 0.00 0.00 64 1014.5
20260905214604 96 18 0.0 2.0 0.00 0.00 0.00 59 1014.4
20260905213107 103 0 0.0 0.0 0.00 0.00 0.00 42 1014.2
20260905211604 99 0 1.0 4.0 0.00 0.00 0.00 53 1014.3
20260905210107 101 37 1.0 4.0 0.00 0.00 0.00 47 1014.4
20260905204606 99 333 1.0 5.0 0.00 0.00 0.00 53 1014.4
20260905203105 99 283 1.0 4.0 0.00 0.00 0.00 48 1014.5
20260905201610 98 316 0.0 4.0 0.00 0.00 0.00 47 1014.6
20260905200109 99 0 0.0 2.0 0.00 0.00 0.00 51 1014.7
20260905194608 101 286 1.0 3.0 0.00 0.00 0.00 47 1014.8
20260905193104 102 0 0.0 2.0 0.00 0.00 0.00 44 1015.0
20260905191609 100 0 0.0 4.0 0.00 0.00 0.00 53 1015.2
20260905190105 100 286 0.0 4.0 0.00 0.00 0.00 47 1015.3
20260905184609 101 240 0.0 3.0 0.00 0.00 0.00 50 1015.4
20260905183109 101 245 0.0 2.0 0.00 0.00 0.00 54 1015.7
20260905181604 100 248 0.0 1.0 0.00 0.00 0.00 56 1015.9
20260905180106 100 256 0.0 2.0 0.00 0.00 0.00 57 1016.0
20260905174603 99 0 0.0 1.0 0.00 0.00 0.00 58 1016.1
20260905173131 96 0 0.0 3.0 0.00 0.00 0.00 54 1016.1
20260905171604 97 262 0.0 2.0 0.00 0.00 0.00 56 1016.3
20260905170127 96 248 0.0 2.0 0.00 0.00 0.00 60 1016.5
20260905164609 96 58 1.0 2.0 0.00 0.00 0.00 55 1016.7
20260905163122 93 342 1.0 3.0 0.00 0.00 0.00 65 1016.9
20260905161615 93 268 0.0 2.0 0.00 0.00 0.00 65 1017.0
20260905160101 92 304 1.0 2.0 0.00 0.00 0.00 66 1017.0
20260905154616 92 252 0.0 2.0 0.00 0.00 0.00 66 1017.1
20260905153102 90 0 0.0 2.0 0.00 0.00 0.00 69 1017.1
20260905151603 88 267 0.0 3.0 0.00 0.00 0.00 71 1017.1
20260905150109 87 275 1.0 3.0 0.00 0.00 0.00 66 1017.1
20260905144605 87 276 1.0 4.0 0.00 0.00 0.00 73 1016.8
20260905143110 86 341 1.0 3.0 0.00 0.00 0.00 67 1016.8
20260905141606 86 302 0.0 2.0 0.00 0.00 0.00 74 1016.9
20260905140105 85 265 0.0 1.0 0.00 0.00 0.00 69 1016.9
20260905134605 84 283 0.0 3.0 0.00 0.00 0.00 78 1016.9
20260905133106 83 281 0.0 1.0 0.00 0.00 0.00 78 1016.8
20260905131604 82 276 0.0 1.0 0.00 0.00 0.00 79 1016.7
20260905130059 81 0 0.0 1.0 0.00 0.00 0.00 81 1016.7
20260905124605 80 0 0.0 2.0 0.00 0.00 0.00 83 1016.5
20260905123110 79 0 0.0 0.0 0.00 0.00 0.00 84 1016.4
20260905121559 79 0 0.0 0.0 0.00 0.00 0.00 84 1016.2
20260905120106 79 0 0.0 0.0 0.00 0.00 0.00 87 1016.1
20260905114606 79 327 0.0 1.0 0.00 0.00 0.00 86 1015.8
20260905113100 78 0 0.0 0.0 0.00 0.00 0.00 85 1015.6
20260905111601 79 0 0.0 0.0 0.00 0.00 0.00 84 1015.6
20260905110104 79 0 0.0 0.0 0.00 0.00 0.00 83 1015.5
20260905104603 79 0 0.0 1.0 0.00 0.00 0.00 82 1015.5
20260905103106 79 0 0.0 0.0 0.00 0.00 0.00 82 1015.6
20260905101609 79 0 0.0 0.0 0.00 0.00 0.00 82 1015.6
20260905100124 80 0 0.0 0.0 0.00 0.00 0.00 82 1015.6
20260905094607 80 0 0.0 0.0 0.00 0.00 0.00 82 1015.6
20260905093101 80 0 0.0 0.0 0.00 0.00 0.00 83 1015.5
20260905091614 80 0 0.0 0.0 0.00 0.00 0.00 83 1015.7
20260905084603 81 0 0.0 1.0 0.00 0.00 0.00 79 1015.8
20260905083124 81 0 0.0 0.0 0.00 0.00 0.00 79 1015.8
20260905081619 81 0 0.0 0.0 0.00 0.00 0.00 80 1015.8
20260905080104 81 0 0.0 0.0 0.00 0.00 0.00 82 1016.1
20260905074601 82 0 0.0 1.0 0.00 0.00 0.00 82 1016.0
20260905073112 82 335 0.0 0.0 0.00 0.00 0.00 73 1016.1
20260905071615 82 0 0.0 0.0 0.00 0.00 0.00 76 1016.2
20260905070107 82 0 0.0 0.0 0.00 0.00 0.00 76 1016.2
20260905064618 82 0 0.0 0.0 0.00 0.00 0.00 76 1016.2
20260905063104 82 0 0.0 0.0 0.00 0.00 0.00 75 1016.2
20260905061610 82 0 0.0 0.0 0.00 0.00 0.00 76 1016.3
20260905060107 83 0 0.0 0.0 0.00 0.00 0.00 78 1016.4
20260905054710 83 0 0.0 0.0 0.00 0.00 0.00 75 1016.5
20260905053101 83 0 0.0 0.0 0.00 0.00 0.00 74 1016.5
20260905051606 84 0 0.0 0.0 0.00 0.00 0.00 73 1016.5
20260905050107 85 0 0.0 0.0 0.00 0.00 0.00 72 1016.2
20260905044609 85 0 0.0 0.0 0.00 0.00 0.00 72 1016.2
20260905043106 85 0 0.0 0.0 0.00 0.00 0.00 72 1016.2
20260905041609 86 0 0.0 0.0 0.00 0.00 0.00 70 1016.1
20260905040112 86 0 0.0 0.0 0.00 0.00 0.00 69 1016.0
20260905034608 86 0 0.0 0.0 0.00 0.00 0.00 69 1016.1
20260905033105 87 0 0.0 0.0 0.00 0.00 0.00 68 1016.0
20260905031611 87 0 0.0 1.0 0.00 0.00 0.00 67 1016.3
20260905030121 88 0 0.0 1.0 0.00 0.00 0.00 67 1016.3
20260905024615 89 0 0.0 0.0 0.00 0.00 0.00 63 1016.3
20260905023116 88 0 0.0 0.0 0.00 0.00 0.00 63 1016.2
20260905021619 87 0 0.0 0.0 0.00 0.00 0.00 65 1016.0
20260905020124 87 0 0.0 0.0 0.00 0.00 0.00 66 1015.9
20260905014625 88 0 0.0 1.0 0.00 0.00 0.00 66 1015.7
20260905013124 89 0 0.0 1.0 0.00 0.00 0.00 66 1015.5